GFSMA_850_dewp_318.txt.gz
Dewpoint
12 11 11 12 11 11 11 10 9 9 8 8 7 7 9 8 7 5 2 -5 -19 -21 -22 -17 -13 -6 -1 -3 -4 -4 -3 0 -0 -3 -3 -2 -3 -4 -3 -3 -1 0 2
11 10 9 8 9 8 9 10 9 9 8 5 3 6 5 3 3 -1 -14 -16 -15 -18 -19 -21 -20 -7 2 0 2 1 1 1 1 1 1 -0 0 1 0 0 0 0 0
-0 -1 0 0 1 0 3 7 8 8 7 6 -2 -3 -8 -14 -14 -14 -17 -14 -13 -14 -12 -13 -15 -4 1 -5 1 1 1 0 1 1 1 1 0 -0 0 1 1 1 2
-4 -4 -6 -5 -5 -2 4 5 8 8 7 6 -2 -4 -8 -13 -11 -12 -10 -11 -10 -13 -11 -11 -11 -6 -6 -9 -2 1 1 0 1 2 1 1 1 0 -0 -1 0 0 1
-8 -7 -7 -7 -6 -2 6 9 7 7 4 1 -3 -2 -9 -8 -5 -6 -7 -7 -7 -7 -8 -8 -8 -9 -9 -10 -10 -2 0 -0 -0 0 0 0 0 1 0 0 0 0 0
-9 -9 -9 -11 -12 -3 5 7 5 4 4 3 1 -2 -5 -5 -5 -5 -6 -6 -6 -6 -7 -6 -7 -7 -8 -7 -7 -5 -1 -2 -1 -0 0 0 0 -0 -0 -0 -0 -0 -0
-12 -18 -25 -27 -22 -13 2 6 6 5 6 4 2 -2 -5 -5 -3 -6 -5 -5 -5 -5 -5 -4 -5 -6 -6 -8 -9 -11 -10 -12 -5 -1 -0 -1 -0 -1 -1 -1 -1 -1 -1
-21 -24 -31 -29 -22 -20 -13 -1 5 6 6 5 4 -2 -4 -3 -4 -5 -5 -5 -5 -4 -4 -4 -5 -5 -5 -7 -11 -9 -11 -12 -8 -2 -1 -1 -1 -1 -1 -1 -1 -1 -1
-23 -29 -28 -29 -18 -17 -18 -23 -25 -6 5 6 6 5 -1 -1 -4 -5 -8 -7 -5 -3 -4 -4 -4 -5 -5 -9 -10 -8 -10 -11 -9 -2 -1 -2 -1 -1 -1 -1 -2 -2 -2
-23 -27 -27 -26 -22 -19 -20 -20 -20 -20 -4 1 5 1 -1 -4 -3 -3 -5 -7 -6 -4 -4 -4 -5 -5 -8 -12 -8 -8 -9 -9 -9 -3 -2 -2 -2 -2 -2 -2 -2 -2 -2
-25 -28 -26 -26 -28 -27 -25 -22 -19 -18 -18 -11 -9 -19 -20 -4 -6 -10 -15 -9 -6 -5 -5 -4 -4 -6 -13 -9 -8 -7 -8 -9 -9 -7 -3 -3 -2 -2 -2 -2 -3 -3 -2
-29 -30 -30 -30 -29 -27 -26 -24 -23 -23 -23 -23 -22 -23 -24 -24 -24 -25 -21 -16 -5 -5 -7 -7 -6 -13 -11 -8 -7 -7 -8 -9 -8 -6 -4 -3 -3 -3 -3 -3 -3 -4 -3
-30 -29 -29 -29 -29 -28 -27 -26 -24 -23 -23 -24 -25 -25 -25 -25 -25 -26 -24 -21 -15 -7 -10 -5 -8 -12 -12 -10 -8 -8 -8 -9 -9 -6 -5 -4 -3 -4 -4 -4 -4 -4 -4
-30 -29 -29 -29 -29 -28 -27 -26 -26 -26 -25 -24 -25 -25 -25 -24 -26 -27 -26 -24 -18 -15 -14 -10 -13 -14 -12 -10 -8 -8 -8 -9 -8 -5 -5 -4 -4 -5 -5 -6 -5 -6 -7
-30 -29 -30 -30 -29 -27 -26 -25 -25 -25 -25 -25 -25 -25 -25 -25 -28 -29 -29 -28 -26 -19 -14 -14 -14 -14 -11 -9 -8 -8 -8 -8 -6 -5 -5 -4 -4 -6 -6 -7 -8 -8 -7
-31 -31 -31 -29 -28 -27 -26 -25 -25 -24 -24 -24 -25 -25 -26 -28 -29 -31 -30 -29 -28 -27 -22 -18 -16 -14 -12 -10 -8 -8 -8 -8 -7 -6 -6 -5 -6 -6 -6 -7 -8 -7 -6
-30 -31 -30 -29 -28 -27 -25 -25 -24 -24 -24 -24 -24 -26 -27 -29 -30 -31 -31 -31 -30 -27 -22 -17 -16 -14 -12 -10 -8 -7 -8 -7 -8 -7 -7 -6 -6 -6 -6 -7 -8 -7 -6
-28 -29 -30 -30 -28 -26 -25 -24 -24 -24 -24 -24 -25 -26 -27 -28 -30 -31 -31 -30 -28 -25 -21 -18 -15 -12 -11 -9 -7 -7 -7 -7 -7 -6 -8 -7 -6 -6 -5 -8 -7 -7 -7
-25 -27 -28 -29 -28 -27 -25 -25 -24 -24 -24 -24 -24 -23 -24 -26 -28 -30 -31 -30 -27 -24 -21 -17 -15 -13 -11 -10 -8 -7 -7 -7 -7 -6 -8 -8 -7 -6 -6 -8 -7 -7 -6
-21 -25 -26 -26 -27 -27 -26 -25 -24 -23 -23 -23 -22 -22 -22 -25 -28 -31 -30 -30 -27 -24 -19 -15 -15 -13 -10 -8 -7 -8 -7 -7 -7 -6 -8 -7 -6 -6 -8 -7 -7 -7 -7
-17 -22 -24 -23 -25 -27 -26 -25 -24 -24 -23 -22 -22 -23 -23 -26 -28 -30 -30 -31 -28 -23 -18 -17 -15 -11 -9 -7 -6 -6 -7 -7 -6 -6 -7 -7 -7 -8 -8 -8 -7 -7 -7
-16 -18 -21 -22 -24 -26 -25 -25 -24 -23 -22 -22 -23 -23 -23 -25 -28 -29 -30 -32 -30 -25 -22 -17 -14 -10 -7 -7 -7 -7 -6 -6 -7 -6 -7 -8 -7 -8 -8 -8 -8 -8 -7
-17 -17 -19 -19 -23 -24 -25 -26 -25 -24 -22 -21 -21 -22 -22 -23 -26 -30 -31 -31 -28 -26 -21 -16 -12 -8 -7 -7 -7 -7 -6 -6 -7 -6 -8 -8 -7 -7 -8 -8 -7 -8 -8
-15 -17 -18 -18 -20 -22 -23 -26 -26 -25 -23 -21 -19 -20 -20 -20 -24 -30 -31 -30 -28 -25 -20 -16 -11 -7 -7 -7 -7 -7 -6 -7 -8 -6 -7 -8 -8 -7 -8 -7 -7 -7 -8
-13 -15 -16 -16 -17 -20 -20 -24 -26 -26 -24 -21 -19 -19 -20 -20 -25 -29 -29 -28 -29 -24 -20 -16 -10 -7 -7 -7 -7 -7 -7 -8 -8 -7 -8 -8 -8 -8 -8 -8 -7 -7 -8
-13 -13 -14 -12 -14 -16 -19 -20 -26 -26 -24 -21 -19 -19 -20 -21 -25 -28 -28 -28 -30 -26 -21 -15 -9 -7 -7 -7 -7 -7 -6 -8 -8 -8 -8 -8 -8 -8 -8 -8 -7 -7 -7

GFSMA_850_dewp_324.txt.gz
Dewpoint
11 12 12 12 12 11 11 11 10 10 8 7 7 8 7 4 -4 -17 -19 -19 -16 1 4 4 3 3 3 2 2 2 2 3 3 1 -1 -0 -0 0 1 1 1 2 2
12 12 12 12 12 11 11 11 9 8 6 2 6 5 -0 -14 -15 -14 -14 -13 -13 -13 -7 2 -3 2 2 2 1 1 1 1 1 2 2 1 1 1 1 1 1 1 1
11 11 11 10 9 9 9 11 8 7 4 1 -3 -13 -15 -10 -11 -11 -10 -10 -10 -10 -8 -9 -10 -11 -11 -9 -4 0 1 1 1 0 1 1 1 1 1 1 1 1 1
9 6 4 5 6 6 7 10 9 6 1 -12 -11 -8 -7 -7 -7 -8 -8 -8 -8 -8 -8 -8 -8 -10 -14 -21 -18 -1 0 1 1 2 1 1 1 1 1 1 1 1 1
-1 -2 -3 -2 0 3 7 9 7 6 -6 -11 -6 -5 -5 -6 -6 -7 -7 -7 -6 -6 -7 -7 -7 -9 -12 -20 -18 -7 0 0 1 1 1 0 1 1 0 0 0 0 0
-6 -5 -5 -5 -3 3 6 8 7 -0 -7 -8 -5 -4 -4 -5 -5 -5 -5 -6 -6 -6 -6 -7 -7 -8 -12 -20 -19 -13 -9 -1 -0 1 0 -0 0 0 -0 0 -0 0 -0
-10 -9 -7 -4 5 6 8 8 6 -2 -4 -6 -5 -4 -4 -4 -4 -4 -4 -5 -5 -5 -5 -6 -6 -8 -17 -19 -16 -13 -13 -9 -1 -0 0 -0 -0 -1 -1 -1 -1 -1 -1
-17 -21 -15 -7 6 8 8 7 5 -1 -2 -4 -4 -4 -3 -3 -3 -4 -4 -4 -4 -4 -5 -6 -7 -9 -19 -18 -17 -14 -13 -12 -10 -1 -1 -1 -0 -1 -1 -1 -2 -1 -2
-22 -29 -25 -12 -2 7 7 6 4 3 0 -1 -3 -2 -3 -3 -5 -6 -5 -4 -3 -4 -5 -6 -10 -10 -19 -17 -16 -14 -12 -11 -10 -5 -1 -1 -1 -2 -1 -2 -2 -2 -2
-23 -22 -20 -10 -11 -2 6 7 6 5 4 3 1 1 4 0 -4 -5 -5 -4 -4 -4 -5 -8 -11 -10 -18 -18 -14 -13 -12 -11 -10 -10 -5 -2 -2 -2 -2 -2 -2 -2 -2
-23 -22 -24 -15 -11 -9 -12 -11 2 6 6 5 3 2 3 1 -3 -3 -5 -5 -5 -6 -7 -9 -13 -13 -18 -17 -15 -12 -10 -10 -10 -9 -6 -2 -2 -2 -3 -3 -4 -3 -3
-24 -24 -24 -21 -15 -12 -13 -14 -14 -4 3 6 4 5 4 -8 -4 -6 -7 -10 -9 -8 -8 -10 -12 -17 -18 -17 -14 -11 -10 -9 -9 -9 -7 -3 -4 -4 -4 -4 -4 -3 -3
-27 -24 -25 -24 -20 -20 -21 -20 -19 -18 -9 -2 1 -2 -21 -22 -24 -24 -23 -19 -12 -9 -8 -13 -13 -19 -18 -15 -13 -10 -9 -8 -8 -8 -7 -4 -4 -7 -7 -8 -6 -4 -4
-26 -27 -26 -24 -23 -22 -21 -21 -23 -23 -24 -24 -24 -24 -25 -25 -26 -26 -26 -25 -21 -17 -14 -15 -18 -18 -16 -14 -11 -9 -8 -8 -8 -7 -8 -4 -5 -6 -9 -8 -7 -5 -5
-27 -26 -26 -26 -26 -25 -24 -24 -23 -24 -24 -24 -24 -24 -25 -26 -27 -27 -27 -28 -28 -26 -21 -20 -19 -17 -15 -12 -10 -9 -8 -8 -8 -8 -9 -8 -5 -6 -8 -6 -6 -5 -6
-27 -26 -27 -26 -26 -25 -25 -24 -24 -24 -24 -24 -24 -25 -25 -26 -26 -26 -27 -27 -27 -27 -24 -22 -20 -17 -13 -11 -10 -8 -8 -8 -8 -8 -9 -7 -6 -7 -8 -8 -7 -6 -6
-27 -26 -26 -26 -25 -25 -24 -24 -23 -23 -23 -24 -24 -25 -25 -25 -26 -26 -26 -26 -26 -27 -24 -23 -20 -16 -13 -10 -9 -8 -8 -8 -8 -9 -9 -7 -6 -8 -8 -8 -8 -8 -8
-27 -26 -26 -26 -25 -24 -23 -23 -23 -22 -23 -23 -24 -24 -24 -25 -26 -25 -25 -26 -26 -27 -25 -23 -20 -17 -13 -10 -9 -8 -8 -8 -8 -9 -8 -7 -7 -8 -8 -8 -9 -9 -9
-26 -25 -27 -26 -26 -24 -23 -22 -22 -23 -23 -23 -23 -23 -23 -24 -25 -25 -25 -26 -27 -27 -27 -25 -22 -17 -13 -10 -9 -8 -8 -8 -8 -9 -8 -7 -8 -8 -8 -8 -9 -9 -9
-26 -26 -26 -26 -24 -22 -23 -22 -23 -23 -23 -22 -21 -22 -22 -24 -25 -25 -25 -26 -27 -28 -28 -26 -22 -17 -13 -10 -8 -9 -8 -8 -8 -9 -8 -7 -8 -8 -9 -9 -9 -9 -8
-24 -25 -26 -26 -23 -23 -22 -23 -23 -22 -22 -21 -21 -21 -22 -24 -24 -25 -25 -26 -26 -28 -28 -26 -22 -16 -12 -10 -9 -8 -8 -9 -9 -9 -9 -8 -8 -8 -9 -9 -9 -9 -8
-16 -20 -23 -24 -25 -23 -21 -23 -22 -21 -21 -20 -20 -22 -22 -22 -23 -24 -24 -24 -25 -28 -29 -27 -21 -15 -11 -9 -9 -9 -9 -9 -9 -8 -9 -9 -8 -9 -8 -8 -8 -9 -9
-10 -16 -20 -22 -23 -23 -23 -23 -21 -21 -20 -19 -20 -21 -21 -21 -21 -23 -24 -23 -24 -27 -29 -27 -21 -14 -10 -9 -8 -8 -8 -9 -9 -8 -9 -9 -8 -8 -8 -8 -8 -8 -8
-9 -13 -18 -20 -20 -22 -23 -22 -21 -21 -20 -19 -19 -18 -19 -19 -19 -23 -24 -23 -24 -27 -29 -27 -20 -14 -11 -9 -8 -8 -8 -9 -9 -8 -9 -9 -9 -9 -9 -9 -8 -8 -8
-7 -10 -14 -19 -19 -20 -21 -22 -22 -23 -22 -20 -19 -18 -17 -18 -19 -22 -24 -22 -23 -26 -28 -27 -20 -14 -11 -9 -8 -8 -8 -9 -10 -8 -9 -9 -9 -9 -9 -9 -9 -8 -8
-7 -9 -12 -17 -18 -18 -19 -20 -21 -24 -24 -23 -21 -18 -17 -18 -19 -21 -24 -22 -22 -25 -28 -26 -19 -13 -10 -9 -9 -8 -8 -8 -10 -9 -9 -9 -9 -9 -9 -10 -10 -9 -8

GFSMA_850_dewp_327.txt.gz
Dewpoint
11 12 12 12 11 12 11 10 11 9 8 7 7 7 5 -5 -17 -4 -0 1 4 5 3 3 3 2 2 2 2 2 2 2 2 2 1 1 1 1 2 2 2 1 1
12 12 12 12 12 11 11 12 10 8 6 6 5 1 -14 -15 -14 -13 -6 -10 -11 -10 -4 -3 -7 -11 -4 2 2 1 2 2 2 2 2 1 2 2 1 1 1 1 1
11 11 11 11 10 11 11 10 8 7 5 3 -5 -15 -12 -11 -10 -10 -10 -3 -3 -11 -10 -11 -12 -16 -23 -3 1 2 2 2 2 2 2 1 1 1 1 1 1 1 1
11 10 9 8 7 8 10 10 8 6 1 -12 -14 -9 -8 -8 -9 -10 -10 -9 -8 -4 -8 -9 -11 -13 -23 -21 -1 1 1 1 2 2 1 1 1 1 1 0 1 0 0
0 -0 0 1 4 6 9 9 7 5 -10 -11 -7 -6 -6 -6 -7 -7 -7 -8 -8 -8 -7 -8 -10 -13 -23 -21 -15 -2 1 1 1 1 1 1 1 1 0 0 1 0 -0
-5 -6 -6 -4 1 6 9 7 6 -2 -10 -6 -5 -5 -5 -5 -5 -5 -5 -6 -7 -7 -7 -7 -11 -13 -22 -21 -19 -13 -1 -0 1 0 1 0 -0 1 -0 -0 -0 0 -0
-8 -7 -7 -4 0 4 7 6 5 -3 -9 -6 -5 -4 -4 -4 -4 -4 -5 -5 -6 -6 -6 -7 -12 -13 -22 -22 -20 -16 -13 -10 -0 0 0 -1 -0 -1 -1 -1 -1 -1 -1
-16 -15 -13 -6 1 6 8 7 4 -4 -7 -5 -5 -4 -2 -3 -4 -4 -5 -5 -5 -5 -5 -8 -13 -13 -21 -21 -20 -17 -13 -12 -9 -1 -0 -0 -0 -1 -2 -2 -2 -2 -1
-24 -23 -20 -3 5 8 8 7 6 -1 -3 -4 -4 -2 -1 -2 -4 -5 -6 -5 -4 -5 -6 -8 -13 -14 -20 -21 -20 -16 -14 -12 -11 -7 -2 -1 -1 -2 -2 -2 -2 -2 -2
-22 -26 -15 -3 3 6 8 7 6 3 -0 -1 -2 -1 3 3 -1 -1 -5 -5 -4 -6 -7 -9 -13 -15 -20 -20 -18 -16 -13 -11 -10 -9 -6 -2 -2 -3 -3 -3 -2 -3 -2
-21 -24 -19 -10 -9 -0 5 6 6 5 3 1 1 0 1 3 2 -3 -1 -4 -6 -8 -9 -10 -13 -16 -21 -20 -17 -14 -11 -10 -10 -9 -6 -3 -3 -4 -4 -3 -3 -3 -3
-23 -23 -21 -16 -16 -14 -12 -9 0 5 5 4 2 3 2 3 -4 -4 -6 -9 -6 -11 -10 -10 -13 -18 -22 -19 -15 -12 -10 -9 -9 -9 -7 -4 -5 -8 -7 -4 -4 -3 -3
-23 -23 -24 -24 -22 -18 -17 -16 -16 -6 1 5 5 4 4 -2 -18 -20 -21 -21 -13 -12 -12 -14 -16 -21 -20 -17 -14 -11 -9 -9 -8 -8 -7 -5 -5 -9 -9 -8 -4 -4 -4
-24 -25 -27 -25 -25 -23 -23 -21 -18 -14 -7 -3 -1 -7 -21 -25 -26 -26 -26 -25 -20 -17 -15 -16 -22 -21 -19 -16 -12 -10 -8 -8 -8 -8 -9 -8 -8 -9 -9 -8 -6 -5 -5
-27 -27 -27 -26 -26 -24 -22 -21 -22 -23 -24 -24 -24 -24 -25 -26 -26 -26 -26 -26 -27 -11 -8 -22 -21 -20 -17 -14 -11 -9 -8 -8 -8 -9 -9 -8 -9 -9 -9 -9 -7 -6 -8
-28 -27 -27 -25 -26 -24 -23 -23 -23 -23 -24 -24 -24 -25 -25 -25 -25 -25 -25 -25 -26 -27 -14 -24 -22 -19 -16 -12 -10 -9 -8 -8 -9 -9 -8 -8 -8 -9 -9 -9 -9 -9 -9
-28 -26 -26 -26 -26 -26 -24 -23 -23 -24 -24 -24 -24 -25 -25 -25 -25 -24 -24 -25 -26 -27 -26 -25 -22 -18 -15 -12 -10 -9 -8 -8 -7 -9 -8 -8 -9 -9 -9 -9 -9 -9 -9
-28 -26 -25 -24 -25 -24 -23 -23 -23 -23 -23 -24 -24 -24 -24 -24 -24 -24 -24 -25 -26 -27 -26 -24 -21 -17 -14 -12 -10 -8 -8 -8 -9 -10 -8 -8 -9 -9 -9 -9 -9 -9 -9
-28 -26 -25 -24 -24 -24 -23 -22 -22 -23 -23 -23 -23 -23 -23 -24 -24 -24 -24 -24 -25 -27 -27 -25 -21 -17 -14 -11 -9 -9 -9 -8 -9 -9 -8 -8 -9 -9 -9 -9 -9 -9 -9
-28 -26 -26 -23 -23 -23 -23 -22 -22 -23 -23 -23 -22 -22 -22 -23 -24 -24 -23 -23 -25 -27 -27 -26 -22 -18 -14 -11 -9 -8 -5 -6 -6 -8 -8 -8 -8 -9 -9 -9 -9 -9 -9
-26 -26 -25 -23 -22 -23 -23 -22 -22 -23 -23 -22 -21 -21 -22 -23 -23 -23 -22 -23 -24 -27 -27 -27 -23 -18 -13 -11 -9 -8 -9 -8 -7 -9 -7 -7 -7 -7 -8 -9 -9 -9 -9
-23 -24 -23 -23 -24 -22 -22 -21 -22 -22 -22 -21 -21 -21 -21 -22 -22 -22 -22 -22 -23 -26 -27 -28 -24 -17 -12 -10 -9 -8 -10 -10 -7 -10 -9 -6 -9 -6 -7 -9 -8 -8 -9
-21 -22 -23 -23 -23 -22 -22 -21 -22 -21 -21 -20 -20 -21 -21 -21 -21 -22 -22 -21 -21 -25 -28 -30 -24 -17 -12 -10 -9 -9 -9 -10 -10 -10 -10 -8 -9 -7 -8 -7 -9 -8 -8
-18 -18 -20 -22 -22 -22 -22 -22 -22 -21 -21 -20 -19 -20 -20 -19 -19 -21 -22 -21 -21 -24 -27 -31 -26 -16 -12 -10 -9 -9 -9 -10 -9 -10 -11 -10 -10 -9 -9 -8 -10 -9 -9
-12 -11 -14 -19 -21 -21 -22 -23 -22 -21 -21 -19 -19 -19 -18 -18 -19 -20 -22 -21 -21 -23 -26 -32 -29 -18 -12 -10 -9 -9 -9 -9 -11 -10 -10 -9 -10 -10 -9 -10 -10 -10 -9
-9 -9 -10 -15 -19 -19 -21 -22 -22 -21 -21 -21 -20 -20 -18 -17 -19 -20 -22 -22 -20 -21 -26 -31 -27 -18 -12 -10 -9 -9 -9 -9 -10 -9 -9 -10 -10 -10 -10 -10 -10 -10 -10

GFSMA_850_dewp_333.txt.gz
Dewpoint
12 13 12 13 12 12 11 10 10 9 7 5 5 4 4 5 5 4 4 1 -10 -14 -16 -11 0 3 3 3 3 4 3 4 3 2 3 2 1 2 2 2 2 2 1
13 12 12 12 12 12 11 10 9 8 6 3 1 2 3 4 5 -1 3 -11 -11 -11 -15 -21 -23 -5 2 3 2 3 2 3 3 3 2 2 2 2 2 2 2 2 1
12 12 12 12 11 11 10 9 8 6 4 2 1 -11 -5 2 3 3 3 2 1 -6 -14 -16 -25 -27 -13 1 2 2 2 2 2 1 2 2 2 2 1 1 1 1 1
12 12 11 11 11 10 10 9 7 5 2 0 -0 1 2 3 2 2 2 2 2 -1 -8 -13 -19 -25 -26 -24 -3 1 3 2 2 1 2 1 1 1 0 0 0 1 0
11 11 10 11 10 11 10 8 7 4 1 0 1 1 2 2 2 1 -1 -0 -4 -2 -1 -4 -5 -12 -21 -26 -24 -5 1 2 2 1 1 0 1 0 0 0 0 0 0
9 9 9 10 10 10 10 8 6 3 1 0 0 2 1 2 2 2 2 1 0 0 -0 -1 -3 -5 -8 -23 -22 -19 -1 1 1 1 0 1 -0 0 0 -0 -0 0 0
-0 6 7 9 9 8 8 8 5 3 1 0 1 2 2 2 1 1 1 0 0 -0 -1 -1 -4 -5 -3 -4 -21 -18 -14 -3 1 1 -0 -1 -0 -1 -1 -1 -1 0 -0
-3 5 7 9 8 8 9 6 5 2 1 -5 1 1 2 2 2 1 1 1 1 -1 -1 -4 -11 -8 -2 -1 -15 -16 -13 -12 -2 0 -1 -1 -0 -1 -1 -1 -1 -0 -1
-0 6 7 8 9 9 8 6 5 2 1 2 2 4 2 1 2 2 2 1 1 0 -1 -1 -4 -7 -2 -1 -12 -15 -14 -12 -9 -1 -2 -1 -1 -1 -1 -1 -1 -1 -1
-3 -1 9 9 9 8 7 6 4 3 2 3 3 3 4 4 2 3 2 1 1 -0 -4 -1 -2 -4 -2 -2 -10 -15 -13 -12 -10 -3 -3 -3 -3 -2 -2 -1 -2 -1 -1
-12 -2 7 9 9 8 7 6 6 4 3 3 4 4 4 3 3 0 2 1 -0 -1 -1 -1 -3 -4 -3 -7 -13 -14 -12 -11 -11 -10 -9 -8 -6 -3 -3 -3 -3 -2 -2
-14 -17 -5 4 8 9 8 8 6 6 5 5 4 4 3 3 2 -1 -2 -1 -2 -0 -1 -2 -3 -4 -3 -3 -16 -13 -11 -11 -11 -11 -11 -11 -10 -10 -8 -6 -4 -3 -3
-8 -20 -20 -13 -5 5 8 8 8 8 7 6 6 4 3 3 2 -3 -5 -3 -3 -1 -0 -1 -3 -4 -4 -3 -13 -11 -11 -10 -11 -11 -11 -11 -11 -11 -11 -11 -11 -9 -7
-7 -23 -22 -15 -12 -8 -4 1 4 7 7 7 6 5 3 1 -8 -5 -5 -4 -3 -2 -1 -2 -3 -4 -3 -10 -9 -4 -5 -10 -11 -11 -11 -11 -11 -11 -11 -11 -11 -10 -10
-12 -22 -23 -20 -17 -15 -13 -13 -10 -9 -4 -2 -0 3 1 -21 -23 -21 -10 -6 -5 -5 -4 -2 -4 -7 -5 -4 -10 -2 -4 -8 -10 -11 -11 -11 -11 -10 -10 -10 -10 -10 -10
-19 -24 -26 -24 -20 -20 -19 -17 -19 -16 -9 -5 -7 -13 -22 -23 -24 -24 -22 -18 -9 -6 -5 -6 -4 -8 -8 -4 -6 -2 -4 -6 -6 -11 -11 -10 -10 -10 -10 -10 -10 -10 -10
-22 -26 -27 -25 -22 -22 -21 -20 -20 -21 -22 -22 -23 -24 -24 -24 -22 -22 -22 -19 -15 -6 -4 -6 -5 -13 -4 -3 -2 -2 -3 -3 -5 -10 -10 -10 -10 -10 -10 -10 -10 -10 -10
-24 -26 -28 -24 -23 -22 -22 -21 -22 -23 -23 -24 -24 -25 -24 -23 -23 -22 -21 -20 -21 -18 -4 -4 -4 -3 -6 -7 -4 -2 -4 -5 -4 -10 -10 -10 -10 -10 -10 -10 -10 -10 -10
-22 -24 -27 -23 -22 -24 -23 -23 -22 -23 -23 -23 -24 -24 -23 -23 -21 -21 -20 -19 -21 -20 -13 -5 -4 -5 -5 -9 -2 -2 -3 -3 -5 -6 -8 -8 -8 -8 -10 -10 -10 -10 -10
-18 -24 -25 -23 -23 -25 -25 -22 -22 -22 -23 -23 -23 -23 -23 -21 -21 -21 -19 -20 -20 -15 -15 -5 -5 -3 -3 -8 -3 -3 -2 -3 -4 -5 -5 -5 -5 -6 -6 -8 -11 -10 -10
-12 -20 -24 -22 -24 -24 -23 -22 -21 -22 -23 -23 -23 -22 -22 -22 -22 -21 -16 -19 -19 -9 -6 -5 -5 -3 -3 -2 -2 -3 -3 -3 -3 -4 -4 -4 -5 -5 -6 -5 -10 -11 -10
-7 -15 -19 -19 -23 -21 -21 -24 -22 -22 -22 -23 -22 -22 -22 -22 -22 -22 -21 -20 -20 -15 -6 -6 -5 -4 -3 -3 -3 -3 -6 -4 -3 -5 -4 -4 -5 -4 -5 -5 -10 -12 -11
-3 -13 -15 -15 -21 -12 -26 -24 -23 -21 -20 -20 -21 -21 -22 -22 -22 -21 -21 -20 -20 -22 -25 -22 -4 -5 -3 -4 -6 -5 -5 -6 -3 -4 -5 -4 -4 -5 -5 -7 -9 -11 -12
1 -8 -14 -15 -17 -14 -26 -24 -22 -18 -15 -15 -15 -20 -19 -21 -21 -21 -21 -20 -19 -20 -22 -25 -25 -22 -16 -13 -9 -7 -7 -5 -5 -8 -11 -4 -9 -12 -7 -5 -8 -12 -12
2 -5 -12 -15 -14 -14 -26 -25 -22 -16 -11 -10 -15 -16 -17 -21 -21 -20 -21 -20 -18 -18 -19 -23 -28 -30 -22 -15 -12 -11 -12 -11 -4 -5 -12 -12 -13 -12 -12 -11 -9 -11 -12
3 -2 -5 -11 -13 -14 -26 -25 -22 -12 -5 -4 -8 -10 -19 -19 -20 -19 -20 -19 -18 -18 -18 -19 -24 -28 -24 -17 -13 -11 -11 -12 -10 -11 -10 -12 -12 -12 -9 -7 -7 -12 -12

GFSMA_850_dewp_336.txt.gz
Dewpoint
10 12 12 12 12 11 11 11 10 8 7 4 7 6 5 3 -2 -3 -1 -13 -17 -19 -5 3 3 3 3 3 4 4 4 4 3 3 3 3 2 2 2 2 2 2 1
11 11 12 12 12 11 11 10 8 7 5 2 4 4 4 1 -8 -9 -10 -5 -8 -16 -21 -26 -22 -1 2 2 3 4 3 3 3 3 3 2 2 2 2 1 1 1 1
11 11 11 12 12 12 10 8 7 5 3 0 -0 3 1 2 3 3 3 2 -1 -5 -13 -20 -18 -26 -21 1 2 3 3 2 2 3 2 1 1 0 2 1 1 1 1
12 11 11 12 12 11 9 8 6 4 1 -2 1 3 3 3 2 3 3 1 -1 -2 -8 -7 -10 -14 -21 -19 -0 2 2 3 1 1 1 1 1 1 1 1 0 0 0
12 11 10 10 10 10 8 8 5 1 0 1 1 2 2 2 2 -2 2 0 -2 -2 -5 -4 -6 -8 -12 -23 -17 1 2 2 2 1 1 0 1 1 0 0 0 -0 0
11 11 11 10 8 8 9 7 4 1 0 1 2 2 1 -0 2 2 1 -1 -3 -3 -2 -3 -4 -6 -11 -18 -22 -19 0 2 1 1 -0 1 1 1 -0 -0 -0 -0 -1
10 9 10 10 9 8 8 7 4 1 0 -0 -4 -1 2 2 2 1 1 0 -0 -2 -7 -10 -9 -2 -5 -18 -21 -18 -14 1 1 -0 0 0 0 -1 -0 -1 -1 -1 -1
-0 6 8 8 9 8 9 8 4 1 -2 -3 -1 0 2 2 1 1 1 1 -1 -1 -2 -6 -12 -11 -6 -16 -21 -16 -15 -9 0 0 -0 -0 -0 -0 -1 -1 -1 -1 -1
-2 6 8 9 9 9 9 7 3 1 -6 1 2 4 3 3 2 2 1 0 1 -0 -1 -1 -8 -9 -9 -13 -18 -16 -14 -12 -3 -1 -1 -1 -1 -0 -1 -1 -1 -1 -1
3 6 8 9 9 9 7 5 4 -1 -6 1 2 4 5 3 3 2 2 0 -2 -1 -4 -2 -4 -6 -8 -15 -17 -15 -13 -12 -11 -8 -4 -3 -2 -2 -2 -1 -2 -2 -2
-2 7 8 8 9 8 5 6 4 2 2 3 3 3 3 2 1 3 2 1 -0 -1 -2 -4 -5 -5 -5 -7 -16 -13 -12 -12 -12 -12 -12 -12 -9 -7 -3 -3 -2 -2 -2
-3 1 8 8 8 8 6 6 5 4 3 4 3 4 4 4 3 -1 1 0 1 -1 -1 -3 -7 -6 -6 -14 -15 -12 -12 -12 -12 -13 -12 -12 -12 -11 -10 -8 -6 -4 -4
-12 -7 5 8 8 9 8 6 6 5 4 4 5 4 4 3 3 -2 -3 -2 -1 -1 -0 -0 -5 -8 -8 -13 -14 -10 -11 -12 -13 -12 -12 -12 -12 -12 -12 -12 -12 -10 -8
-3 -11 -12 -2 4 9 8 8 7 6 5 6 5 5 4 2 -3 -6 -5 -4 -1 -2 -1 -0 -3 -4 -11 -9 -11 -11 -10 -11 -13 -12 -12 -12 -11 -11 -12 -12 -12 -11 -11
1 -12 -16 -15 -11 -4 -1 3 5 6 6 6 5 4 2 -2 -18 -15 -5 -3 -3 -1 -0 -2 -3 -5 -12 -10 -8 -9 -7 -9 -12 -12 -12 -11 -11 -12 -11 -11 -11 -11 -11
-1 -15 -18 -19 -17 -15 -15 -12 -10 -6 -4 -4 -2 1 -1 -20 -24 -23 -22 -18 -6 -6 -4 -5 -6 -10 -9 -8 -6 -4 -5 -6 -8 -12 -11 -12 -12 -12 -11 -11 -11 -11 -11
-6 -17 -21 -22 -21 -20 -20 -20 -17 -15 -11 -5 -5 -9 -21 -23 -23 -22 -21 -21 -20 -9 -6 -5 -13 -15 -11 -7 -8 -4 -5 -5 -6 -9 -11 -12 -12 -12 -11 -11 -11 -11 -11
-14 -21 -24 -23 -23 -23 -23 -23 -20 -16 -15 -17 -21 -23 -23 -22 -21 -21 -21 -21 -21 -11 -8 -10 -9 -7 -9 -13 -8 -3 -5 -5 -6 -7 -10 -10 -10 -10 -11 -11 -11 -11 -11
-15 -22 -24 -23 -23 -22 -23 -22 -20 -20 -21 -22 -23 -24 -23 -22 -21 -21 -21 -21 -21 -20 -7 -7 -7 -8 -10 -10 -4 -2 -2 -4 -5 -5 -6 -6 -7 -6 -8 -12 -12 -12 -11
-11 -18 -22 -21 -21 -20 -22 -21 -21 -20 -21 -22 -23 -23 -22 -22 -21 -21 -20 -19 -20 -20 -17 -8 -7 -7 -6 -10 -8 -2 -2 -3 -3 -4 -4 -5 -6 -6 -6 -9 -9 -12 -12
-7 -14 -19 -18 -17 -18 -21 -22 -21 -21 -21 -23 -23 -21 -22 -21 -21 -21 -20 -20 -19 -17 -13 -7 -5 -5 -4 -7 -5 -5 -6 -4 -2 -6 -7 -4 -5 -5 -5 -6 -6 -11 -12
-5 -10 -17 -19 -17 -20 -21 -23 -22 -22 -22 -22 -23 -23 -22 -21 -22 -21 -20 -20 -19 -16 -11 -6 -5 -5 -3 -8 -10 -7 -8 -7 -2 -6 -9 -4 -4 -4 -5 -5 -5 -11 -13
-2 -5 -12 -17 -18 -19 -21 -23 -23 -20 -22 -22 -23 -23 -22 -22 -22 -22 -21 -20 -20 -20 -18 -16 -11 -8 -6 -10 -13 -11 -10 -10 -5 -3 -7 -7 -5 -6 -5 -7 -10 -13 -13
-0 -1 -6 -13 -18 -19 -24 -23 -23 -20 -20 -20 -22 -22 -22 -22 -22 -22 -21 -20 -20 -19 -20 -22 -23 -22 -22 -20 -16 -14 -11 -10 -6 -7 -11 -12 -12 -13 -13 -12 -9 -14 -14
2 1 -3 -9 -16 -21 -25 -24 -21 -19 -17 -17 -18 -19 -20 -21 -22 -21 -21 -21 -20 -19 -19 -20 -22 -26 -28 -24 -18 -14 -13 -12 -10 -7 -13 -14 -15 -16 -17 -15 -12 -13 -16
4 2 -0 -6 -12 -19 -24 -24 -22 -20 -15 -13 -14 -14 -18 -20 -21 -21 -20 -20 -20 -19 -18 -18 -19 -22 -26 -24 -19 -15 -13 -13 -14 -14 -14 -12 -15 -15 -17 -14 -12 -12 -14

GFSMA_850_dewp_339.txt.gz
Dewpoint
10 10 11 11 10 11 11 10 10 9 8 7 7 5 5 -1 -2 -12 -11 -16 -21 -21 1 3 4 3 3 4 3 3 3 3 3 3 3 2 2 2 2 2 2 2 1
10 12 12 12 12 11 11 10 9 7 7 6 5 5 1 -8 -6 -4 -1 -6 -12 -18 -20 -21 -19 -2 2 3 3 3 3 3 3 3 2 2 2 2 2 1 1 1 1
11 11 12 12 12 11 11 8 7 4 4 5 5 2 -0 1 2 2 -0 -5 -7 -10 -10 -16 -19 -25 -9 1 3 3 3 3 2 2 1 0 1 1 1 1 1 1 0
10 10 12 12 12 11 8 8 7 3 -1 1 0 -0 0 0 1 1 -1 -6 -8 -9 -10 -14 -13 -18 -24 -7 3 3 2 2 1 1 1 1 1 1 1 1 -0 0 1
11 11 11 12 12 10 8 7 5 -0 -8 -4 -0 3 2 2 2 2 1 -4 -7 -8 -11 -14 -17 -14 -19 -23 -4 2 2 2 1 1 1 1 0 0 -0 0 -1 -0 -0
11 11 10 10 10 8 8 7 4 -2 -5 -2 0 1 1 0 -1 -0 -1 -3 -3 -8 -12 -15 -18 -15 -16 -22 -20 -3 2 1 1 1 1 1 0 -0 -0 -1 -0 -1 -0
12 11 11 9 9 8 7 7 3 -0 -1 -2 -1 1 2 2 1 1 1 -1 -1 -3 -6 -10 -15 -18 -13 -19 -19 -16 0 1 1 1 0 0 -1 -0 -1 -1 -0 -1 -1
10 10 10 8 8 8 7 7 4 -0 -1 -2 -4 -1 1 1 2 1 1 -0 -1 -1 -5 -6 -12 -15 -16 -22 -19 -16 -14 -2 -1 0 0 -0 -1 -1 -1 -1 -1 -1 -1
9 9 9 9 8 8 8 7 5 0 -5 -1 3 4 2 2 2 2 1 0 -1 -1 -5 -6 -12 -15 -13 -17 -19 -16 -14 -12 -11 -3 -1 -1 -1 -1 -1 -1 -2 -1 -2
8 6 6 10 9 8 8 8 5 -0 -7 2 2 3 5 3 3 2 1 1 0 -2 -4 -6 -13 -15 -14 -17 -18 -15 -13 -13 -14 -12 -10 -4 -2 -2 -2 -1 -2 -2 -2
4 6 8 9 9 8 8 8 4 -1 -1 1 2 3 3 4 4 3 2 1 -0 -1 -3 -7 -13 -15 -14 -15 -16 -14 -13 -14 -14 -14 -13 -12 -10 -6 -5 -3 -2 -2 -2
4 7 9 9 8 9 8 5 4 -2 1 3 3 2 1 2 2 0 1 1 -1 -1 -1 -4 -5 -12 -14 -14 -16 -13 -13 -14 -14 -13 -13 -13 -13 -13 -12 -6 -4 -4 -4
2 8 8 8 7 8 5 5 3 2 3 4 4 4 4 4 3 -2 -0 -0 -0 -1 -1 -1 -2 -6 -8 -14 -15 -13 -14 -14 -14 -14 -13 -13 -13 -13 -13 -12 -12 -12 -12
-5 6 7 8 7 5 7 5 5 4 3 4 5 4 4 3 3 1 -2 -2 -1 -1 -0 -1 -2 -4 -7 -14 -15 -12 -12 -13 -14 -14 -13 -13 -13 -13 -13 -13 -13 -12 -12
-9 -9 -2 2 5 6 7 6 6 5 4 4 5 4 3 1 -1 -7 -4 -3 -4 -2 -0 -1 -2 -4 -11 -14 -13 -10 -11 -10 -13 -14 -13 -13 -13 -13 -13 -13 -13 -13 -12
-0 -2 -8 -2 4 5 7 5 6 5 4 5 3 3 2 -0 -8 -10 -4 -4 -4 -2 -1 -1 -4 -6 -12 -16 -11 -10 -11 -8 -11 -13 -13 -13 -13 -13 -13 -12 -13 -13 -12
1 2 -6 -15 -11 -6 5 3 4 2 0 -1 -1 -1 -1 -3 -22 -22 -19 -12 -9 -4 -5 -5 -5 -10 -15 -14 -11 -8 -8 -7 -8 -9 -11 -11 -12 -12 -13 -13 -13 -12 -12
4 -1 -13 -15 -17 -15 -13 -14 -11 -12 -10 -11 -8 -6 -5 -21 -23 -22 -22 -21 -21 -18 -13 -9 -12 -12 -12 -14 -10 -7 -7 -7 -6 -7 -7 -8 -9 -10 -12 -13 -13 -13 -12
3 -8 -16 -19 -21 -19 -21 -20 -18 -18 -15 -12 -15 -16 -22 -22 -22 -22 -21 -21 -21 -20 -17 -15 -14 -14 -13 -11 -8 -5 -4 -4 -5 -5 -6 -6 -7 -7 -8 -11 -12 -13 -13
-3 -12 -19 -21 -22 -22 -23 -22 -20 -18 -17 -19 -21 -21 -23 -22 -22 -22 -21 -21 -21 -20 -18 -15 -13 -12 -11 -11 -10 -5 -3 -3 -3 -4 -4 -7 -5 -5 -5 -9 -9 -10 -12
-4 -9 -17 -20 -20 -21 -22 -22 -20 -19 -20 -21 -21 -22 -23 -22 -22 -21 -21 -20 -20 -19 -18 -13 -12 -12 -11 -10 -11 -9 -5 -4 -4 -3 -5 -9 -6 -4 -5 -10 -10 -10 -11
-2 -8 -12 -17 -19 -22 -21 -22 -19 -20 -20 -21 -23 -23 -23 -22 -21 -21 -21 -19 -18 -18 -16 -14 -12 -10 -13 -11 -11 -11 -8 -7 -8 -8 -9 -7 -7 -6 -7 -9 -9 -9 -12
1 -5 -8 -13 -17 -20 -21 -23 -22 -20 -20 -20 -22 -23 -22 -22 -21 -21 -21 -20 -19 -18 -16 -16 -16 -15 -16 -15 -14 -15 -13 -12 -11 -9 -7 -7 -8 -6 -6 -8 -8 -11 -16
3 -2 -5 -9 -14 -16 -19 -23 -24 -20 -18 -19 -22 -22 -22 -22 -22 -22 -22 -21 -20 -20 -19 -19 -19 -20 -21 -24 -23 -18 -14 -12 -12 -11 -9 -10 -13 -13 -9 -10 -14 -17 -18
4 1 -2 -5 -9 -14 -16 -21 -19 -17 -17 -18 -21 -21 -22 -22 -22 -22 -22 -21 -21 -20 -19 -19 -20 -20 -22 -25 -27 -22 -18 -13 -12 -13 -14 -14 -16 -17 -17 -17 -18 -16 -18
5 3 -0 -1 -3 -10 -14 -18 -19 -15 -17 -18 -19 -20 -20 -21 -22 -22 -22 -21 -21 -20 -19 -19 -18 -18 -20 -22 -24 -26 -20 -17 -13 -13 -15 -14 -16 -17 -19 -21 -22 -20 -18

GFSMA_850_dewp_342.txt.gz
Dewpoint
8 9 11 10 10 10 9 9 9 9 8 7 5 4 -2 -8 -12 -18 -19 -20 -20 -4 3 4 4 5 5 4 4 3 3 3 2 2 3 2 2 1 2 1 1 1 1
10 10 11 10 10 10 10 9 9 8 8 7 5 2 -6 -12 -4 -6 -10 -15 -16 -20 -21 -5 3 3 4 4 4 3 3 3 2 2 2 2 1 1 1 1 1 1 1
11 11 11 11 11 11 10 10 9 8 7 6 5 -3 -5 -1 0 -5 -9 -12 -13 -14 -18 -16 -18 1 4 4 4 4 3 3 2 1 2 1 0 1 1 0 1 1 0
11 12 11 11 12 11 11 9 6 5 5 5 1 -1 -1 -1 -2 -3 -6 -12 -13 -13 -18 -16 -19 -24 -12 3 3 3 2 1 1 1 1 1 0 1 0 0 1 0 -1
11 10 12 11 12 11 10 7 6 3 2 0 -2 -1 -2 -3 -1 -2 -7 -10 -10 -13 -16 -18 -15 -21 -24 -11 3 3 2 1 2 1 1 1 0 1 -0 0 -0 -0 -1
10 10 12 12 12 11 8 7 4 -0 -5 -5 -1 1 0 -1 -0 -1 -4 -5 -5 -8 -13 -17 -17 -17 -21 -21 -6 3 2 2 2 1 1 0 0 0 -0 -0 -1 -0 -0
10 10 10 11 11 9 8 7 1 -7 -3 -1 -0 2 2 2 2 1 0 -3 -3 -5 -11 -14 -16 -15 -19 -20 -18 -5 0 1 1 1 1 -0 -1 -1 -1 -1 -1 -1 -1
10 11 10 10 10 8 7 6 3 -3 -3 -2 -2 1 2 2 2 1 1 -0 -3 -3 -8 -11 -14 -15 -17 -22 -19 -15 -14 -8 -1 -0 0 -1 -2 -1 -1 -1 -1 -1 -1
11 11 11 9 9 8 7 6 5 -3 -3 -2 -4 -2 1 1 2 1 1 1 -0 -2 -6 -10 -13 -15 -16 -21 -18 -15 -14 -15 -12 -4 -1 -1 -1 -1 -1 -2 -2 -2 -2
11 10 10 8 7 7 7 6 6 1 -6 -4 3 5 5 3 2 2 1 1 1 -0 -4 -9 -13 -15 -16 -20 -18 -15 -14 -16 -16 -14 -10 -6 -3 -2 -2 -1 -1 -2 -2
10 10 9 9 8 8 7 6 7 4 -5 0 4 4 5 3 3 2 1 1 1 -0 -2 -5 -7 -13 -16 -17 -17 -15 -15 -16 -16 -16 -15 -14 -12 -8 -4 -3 -3 -3 -3
9 9 8 8 9 9 8 8 8 4 -5 0 2 3 4 3 3 3 1 1 0 -1 -1 -2 -3 -7 -9 -15 -15 -14 -15 -15 -15 -15 -15 -14 -14 -14 -13 -9 -6 -5 -6
6 6 5 9 8 8 9 9 8 3 -5 0 2 2 3 4 3 1 -0 1 -1 -1 -1 -2 -2 -3 -7 -15 -14 -14 -15 -15 -15 -15 -14 -14 -14 -14 -15 -14 -14 -14 -14
-4 -0 4 8 7 8 9 7 6 1 -2 3 4 4 4 4 4 3 -0 -1 -1 -1 -1 -1 -2 -2 -6 -13 -11 -12 -13 -15 -15 -15 -15 -15 -14 -15 -15 -14 -14 -14 -14
-2 2 5 7 8 8 7 4 5 2 1 2 3 4 4 4 3 3 3 -1 -4 -3 -2 -2 -1 -3 -6 -12 -11 -10 -11 -12 -14 -14 -14 -14 -15 -15 -15 -15 -15 -14 -15
-7 2 4 6 7 8 6 5 5 4 3 3 4 5 5 4 1 -0 -4 -5 -4 -3 -3 -2 -3 -3 -7 -13 -12 -10 -10 -9 -11 -13 -13 -14 -14 -15 -15 -16 -15 -14 -15
-9 -1 0 6 5 4 4 3 4 5 5 4 4 4 4 4 2 -4 -11 -5 -4 -3 -4 -3 -3 -5 -10 -14 -13 -10 -10 -9 -8 -10 -11 -11 -12 -14 -15 -16 -16 -15 -14
-4 -4 -4 -0 1 1 1 -2 2 3 1 3 4 4 3 2 1 -10 -16 -7 -5 -4 -6 -5 -7 -8 -15 -14 -13 -9 -8 -7 -7 -7 -8 -7 -8 -8 -11 -15 -14 -15 -14
1 0 -0 -3 -6 -5 -5 -3 3 -1 -2 -1 -2 -4 -5 -3 -6 -23 -22 -21 -20 -19 -14 -15 -14 -15 -14 -14 -14 -9 -6 -6 -6 -5 -5 -6 -7 -7 -7 -11 -14 -13 -14
1 3 1 -7 -14 -15 -14 -10 -7 -7 -6 -8 -9 -9 -7 -9 -22 -22 -22 -21 -21 -20 -19 -18 -14 -13 -13 -11 -12 -12 -9 -6 -6 -6 -5 -4 -8 -7 -7 -10 -13 -13 -14
2 3 -4 -13 -15 -19 -21 -20 -20 -19 -17 -14 -11 -13 -15 -19 -21 -20 -21 -21 -21 -20 -19 -19 -15 -14 -14 -13 -13 -13 -12 -9 -7 -6 -6 -6 -9 -8 -9 -9 -10 -13 -15
3 2 -7 -15 -18 -21 -23 -24 -23 -22 -18 -17 -20 -21 -20 -21 -21 -21 -20 -20 -19 -20 -20 -19 -16 -15 -13 -13 -12 -13 -13 -12 -9 -11 -9 -8 -12 -11 -10 -10 -8 -10 -16
3 1 -7 -11 -15 -19 -23 -23 -23 -20 -19 -19 -21 -21 -21 -22 -21 -20 -20 -20 -19 -19 -18 -17 -16 -16 -15 -15 -13 -15 -17 -14 -13 -12 -11 -10 -11 -12 -13 -12 -11 -12 -16
3 3 -2 -7 -10 -14 -19 -22 -23 -19 -17 -18 -20 -20 -20 -21 -21 -20 -20 -21 -20 -19 -19 -18 -17 -16 -16 -17 -18 -19 -18 -18 -16 -13 -12 -13 -14 -15 -14 -15 -15 -14 -14
4 3 1 -4 -6 -9 -15 -18 -20 -18 -17 -18 -18 -18 -19 -20 -20 -20 -20 -21 -21 -21 -20 -19 -18 -18 -19 -20 -22 -24 -24 -22 -21 -16 -13 -12 -16 -16 -16 -17 -17 -16 -16
5 4 3 -1 -4 -6 -10 -15 -16 -17 -17 -16 -15 -17 -18 -20 -20 -20 -21 -22 -22 -22 -21 -20 -19 -19 -19 -19 -20 -22 -23 -24 -22 -18 -20 -16 -17 -16 -17 -21 -22 -22 -20

GFSMA_850_dewp_345.txt.gz
Dewpoint
8 11 11 11 9 8 8 8 8 8 7 5 2 -6 -15 -17 -18 -15 -16 -15 -11 1 4 5 4 4 4 3 3 4 2 2 2 2 1 1 2 1 1 1 1 0 1
8 11 11 10 9 9 9 9 8 8 7 5 4 -4 -10 -6 -9 -14 -17 -19 -21 -21 -16 2 4 5 4 4 3 3 3 3 2 2 1 1 2 1 1 1 1 0 0
9 11 10 10 10 10 9 9 8 9 7 6 1 -7 -6 -3 -8 -12 -14 -15 -18 -21 -20 -23 1 4 4 3 3 3 3 2 2 2 1 1 1 -0 1 1 1 1 0
10 11 10 10 10 10 9 8 8 8 7 5 -2 -2 -0 -2 -3 -8 -13 -14 -16 -19 -19 -19 -24 -15 2 4 3 3 2 2 2 2 1 1 1 1 1 0 -0 -0 0
11 12 11 10 10 11 10 9 7 6 5 4 -2 -0 -1 -1 -3 -6 -9 -10 -13 -15 -17 -19 -18 -24 -15 3 3 2 2 2 1 1 1 0 0 -0 -0 0 -0 -1 -1
11 12 11 11 12 11 10 8 6 5 4 -1 -1 -0 -1 -1 -1 -1 -4 -6 -8 -10 -14 -17 -18 -22 -22 -8 2 2 2 2 2 1 1 -0 0 0 -1 -1 -1 -1 -1
11 11 12 11 11 11 10 7 5 2 1 -1 -1 1 1 1 1 0 0 -3 -5 -8 -10 -15 -17 -18 -21 -18 -12 1 2 2 1 1 1 1 -0 -1 -0 -2 -1 -1 -1
11 10 11 12 11 11 9 7 5 -0 -2 -1 -4 -0 2 1 1 1 1 0 -1 -4 -9 -13 -15 -17 -20 -20 -17 -15 -13 -2 1 -0 0 -1 -0 -1 -1 -1 -1 -2 -2
10 10 11 11 11 11 9 7 4 -8 -3 -1 -4 -4 1 2 1 1 1 1 0 -2 -5 -10 -14 -15 -17 -19 -17 -16 -16 -17 -9 -2 -1 -1 -1 -1 -1 -1 -2 -2 -2
10 10 10 10 10 11 8 7 4 -3 -9 -5 -3 -3 1 1 1 1 1 1 1 -0 -2 -6 -10 -13 -16 -19 -17 -15 -17 -17 -17 -15 -11 -6 -4 -2 -2 -2 -2 -2 -3
10 10 11 11 10 9 8 7 6 2 -6 -7 -5 4 5 4 1 1 1 0 1 0 -2 -3 -4 -8 -12 -17 -16 -15 -17 -17 -17 -17 -16 -16 -11 -6 -4 -3 -3 -3 -4
11 11 11 10 8 7 7 6 5 5 0 -5 2 4 4 3 2 3 2 1 1 -0 -1 -2 -3 -4 -8 -15 -16 -15 -16 -16 -17 -17 -16 -16 -16 -16 -16 -16 -13 -10 -13
11 11 10 10 9 8 8 8 7 7 4 -4 1 2 3 4 4 3 2 0 1 -0 -1 -2 -3 -3 -6 -13 -13 -14 -16 -17 -17 -16 -16 -16 -17 -17 -17 -17 -17 -17 -17
9 10 10 9 7 8 9 8 8 8 5 -3 -2 1 2 3 4 3 3 0 -0 -1 -2 -3 -3 -2 -4 -10 -12 -12 -14 -17 -17 -16 -16 -16 -17 -17 -17 -17 -17 -17 -18
5 7 8 7 5 9 9 9 8 8 5 -2 -0 2 3 4 4 4 3 3 1 -2 -5 -5 -3 -3 -4 -8 -12 -12 -12 -14 -16 -15 -16 -16 -17 -17 -17 -17 -18 -17 -18
-1 4 7 5 6 9 8 9 8 7 4 -3 1 3 3 4 4 4 4 3 0 -1 -4 -6 -4 -3 -4 -8 -13 -12 -11 -12 -13 -14 -14 -15 -16 -16 -18 -18 -18 -18 -18
-6 -2 1 3 7 8 8 9 6 5 4 0 2 2 2 4 4 4 2 -2 -6 -3 -4 -4 -3 -3 -4 -8 -15 -13 -11 -11 -10 -11 -11 -11 -13 -15 -16 -17 -17 -18 -18
-7 -3 -2 4 6 7 8 8 6 5 5 3 3 3 3 4 4 4 3 -2 -9 -3 -4 -4 -4 -5 -7 -11 -13 -12 -10 -8 -9 -9 -8 -9 -9 -10 -11 -14 -16 -17 -18
-7 -5 -4 1 3 5 7 6 4 1 4 4 4 4 4 4 3 2 -0 -5 -13 -6 -6 -7 -8 -9 -10 -14 -14 -14 -11 -9 -8 -7 -6 -6 -6 -8 -9 -9 -15 -18 -19
-8 -6 -4 -0 2 4 4 5 3 1 2 3 3 2 3 0 -4 -4 -4 -19 -19 -16 -17 -16 -14 -13 -14 -14 -15 -14 -14 -11 -9 -8 -7 -6 -6 -9 -9 -8 -12 -16 -17
-6 -3 -2 -1 1 1 2 2 0 -0 2 2 2 1 -3 -5 -6 -4 -18 -21 -20 -19 -19 -18 -17 -17 -15 -16 -16 -14 -15 -12 -10 -8 -8 -9 -8 -8 -12 -11 -11 -12 -15
-3 1 1 1 2 -1 -4 -6 -7 -9 -4 -4 -7 -10 -11 -9 -8 -16 -19 -18 -18 -19 -20 -19 -19 -18 -16 -15 -14 -13 -13 -14 -12 -13 -12 -13 -10 -12 -14 -14 -12 -12 -15
-0 0 2 3 -1 -10 -12 -13 -15 -14 -15 -16 -16 -16 -14 -17 -18 -20 -20 -19 -19 -19 -18 -18 -17 -17 -15 -14 -13 -13 -14 -17 -18 -15 -13 -13 -13 -15 -14 -13 -14 -15 -16
3 2 2 3 -4 -12 -15 -16 -17 -18 -19 -18 -18 -18 -18 -19 -19 -21 -21 -20 -19 -20 -19 -18 -18 -16 -14 -13 -15 -14 -13 -17 -18 -17 -15 -15 -16 -17 -15 -16 -16 -17 -17
5 4 3 2 -4 -10 -13 -15 -17 -18 -19 -18 -18 -18 -18 -18 -18 -19 -19 -18 -19 -20 -20 -19 -19 -18 -17 -16 -16 -16 -18 -18 -21 -21 -17 -14 -18 -18 -18 -19 -20 -20 -20
6 5 4 3 -1 -7 -10 -12 -13 -15 -17 -18 -17 -18 -17 -16 -16 -17 -18 -18 -18 -20 -20 -20 -20 -19 -18 -18 -19 -19 -20 -20 -21 -19 -20 -17 -19 -16 -17 -20 -22 -25 -24